Location: Vancouver
(49.2500°N, 123.1330°W)
Time: 18:48:27
(UTC-07:00)

Transit 2A Rocket - Visible Passes

Search period start: 31 August 2016 00:00
Search period end: 10 September 2016 00:00
Orbit: 585 x 920 km, 66.7° (Epoch: 31 August)

Date Brightness Start Highest point End Pass type
(mag) Time Alt. Az. Time Alt. Az. Time Alt. Az.
31 Aug 7.7 00:15:22 10° WNW 00:19:54 21° NNW 00:24:23 10° NNE visible
31 Aug 8.2 02:01:41 10° NNW 02:04:55 14° N 02:08:04 10° NE visible
31 Aug 7.6 03:45:14 10° NNW 03:49:51 22° NNE 03:54:12 10° ENE visible
31 Aug 5.6 05:27:45 10° NNW 05:33:37 69° NE 05:38:56 10° SE visible
31 Aug 5.5 21:47:20 10° SW 21:53:27 79° NW 21:59:36 10° NE visible
31 Aug 7.4 23:32:01 10° W 23:37:04 26° NNW 23:42:03 10° NNE visible
01 Sep 8.1 01:18:33 10° NW 01:21:52 15° N 01:25:08 10° NNE visible
01 Sep 7.9 03:02:51 10° NNW 03:06:58 19° NNE 03:10:52 10° ENE visible
01 Sep 6.2 04:45:26 10° NNW 04:51:07 47° NE 04:56:19 10° ESE visible
01 Sep 5.3 21:05:03 10° SSW 21:11:06 73° ESE 21:17:13 10° NE visible
01 Sep 7.0 22:48:50 10° W 22:54:19 33° NW 22:59:47 10° NNE visible
02 Sep 8.1 00:35:12 10° NW 00:38:52 16° NNW 00:42:28 10° NNE visible
02 Sep 8.0 02:20:23 10° NNW 02:24:00 16° NNE 02:27:30 10° NE visible
02 Sep 6.9 04:03:09 10° NNW 04:08:30 34° NE 04:13:27 10° ESE visible
02 Sep 5.2 05:45:51 10° NW 05:51:32 60° WSW 05:56:40 10° SSE visible
02 Sep 5.6 20:23:04 10° S 20:28:52 48° ESE 20:34:44 10° NE visible
02 Sep 6.5 22:05:50 10° WSW 22:11:41 44° NW 22:17:30 10° NNE visible
02 Sep 7.9 23:51:45 10° WNW 23:55:54 18° NNW 23:59:59 10° NNE visible
03 Sep 8.1 01:37:43 10° NNW 01:40:59 15° N 01:44:11 10° NE visible
03 Sep 7.3 03:20:52 10° NNW 03:25:46 26° NNE 03:30:23 10° E visible
03 Sep 5.1 05:03:25 10° NW 05:09:15 90° NE 05:14:32 10° SE visible
03 Sep 5.9 21:23:05 10° SW 21:29:09 62° NW 21:35:13 10° NNE visible
03 Sep 7.7 23:08:19 10° WNW 23:13:00 22° NNW 23:17:38 10° NNE visible
04 Sep 8.2 00:54:46 10° NNW 00:57:58 14° N 01:01:05 10° NNE visible
04 Sep 7.6 02:38:32 10° NNW 02:42:56 21° NNE 02:47:07 10° ENE visible
04 Sep 5.7 04:21:03 10° NNW 04:26:50 61° NE 04:32:05 10° SE visible
04 Sep 5.4 20:40:36 10° SW 20:46:43 88° WNW 20:52:53 10° NE visible
04 Sep 7.4 22:25:01 10° W 22:30:12 28° NNW 22:35:19 10° NNE visible
05 Sep 8.1 00:11:33 10° NW 00:14:56 15° N 00:18:15 10° NNE visible
05 Sep 7.9 01:56:09 10° NNW 02:00:02 17° NNE 02:03:46 10° ENE visible
05 Sep 6.3 03:38:45 10° NNW 03:44:18 42° NE 03:49:24 10° ESE visible
05 Sep 5.4 05:21:38 10° NW 05:27:00 43° WSW 05:31:54 10° S visible
05 Sep 7.0 21:41:52 10° WSW 21:47:29 36° NW 21:53:03 10° NNE visible
05 Sep 8.0 23:28:09 10° NW 23:31:56 17° NNW 23:35:39 10° NNE visible
06 Sep 8.0 01:13:37 10° NNW 01:17:04 15° N 01:20:23 10° NE visible
06 Sep 6.9 02:56:28 10° NNW 03:01:39 31° NE 03:06:27 10° E visible
06 Sep 5.0 04:39:06 10° NW 04:44:49 68° WSW 04:49:59 10° SSE visible
06 Sep 6.4 20:58:57 10° WSW 21:04:53 49° NW 21:10:47 10° NNE visible
06 Sep 7.9 22:44:41 10° WNW 22:48:59 19° NNW 22:53:13 10° NNE visible
07 Sep 8.1 00:30:51 10° NNW 00:34:02 14° N 00:37:08 10° NE visible
07 Sep 7.3 02:14:10 10° NNW 02:18:53 24° NNE 02:23:19 10° E visible
07 Sep 5.1 03:56:41 10° NW 04:02:30 80° NE 04:07:44 10° SE visible
07 Sep 6.3 05:40:30 10° WNW 05:44:23 20° WSW 05:48:03 10° SSW visible
07 Sep 5.8 20:16:16 10° SW 20:22:23 69° NW 20:28:29 10° NNE visible
07 Sep 7.6 22:01:16 10° W 22:06:07 24° NNW 22:10:53 10° NNE visible
07 Sep 8.1 23:47:49 10° NW 23:51:00 14° N 23:54:07 10° NNE visible
08 Sep 7.6 01:31:50 10° NNW 01:36:02 19° NNE 01:40:02 10° ENE visible
08 Sep 5.8 03:14:21 10° NNW 03:20:03 54° NE 03:25:13 10° SE visible
08 Sep 5.7 04:57:31 10° NW 05:02:25 31° WSW 05:06:56 10° S visible
08 Sep 7.3 21:18:01 10° W 21:23:21 30° NW 21:28:36 10° NNE visible
08 Sep 8.0 23:04:31 10° NW 23:07:59 15° N 23:11:22 10° NNE visible
09 Sep 7.8 00:49:24 10° NNW 00:53:06 17° NNE 00:56:39 10° NE visible
09 Sep 6.4 02:32:04 10° NNW 02:37:28 38° NE 02:40:48 19° E visible
09 Sep 5.1 04:14:51 10° NW 04:20:19 50° WSW 04:20:26 50° WSW visible
09 Sep 6.8 20:34:56 10° WSW 20:40:40 39° NW 20:46:20 10° NNE visible
09 Sep 7.9 22:21:05 10° WNW 22:25:00 17° NNW 22:28:50 10° NNE visible
